User: anonymous   Login
Location: Montague
(41.3030°N, 74.7940°W)
Time: 09:26:03
(UTC-04:00)
Language:

Cosmos 1461 - Orbit

View from above orbital plane
View from above orbital plane
View from above satellite
View from above satellite

Ground track
Ground track

The orbit data is extracted from the following two-line orbital elements,

1 14064U 83044A   14297.74168528  .00004907  00000-0  48949-3 0  6701
2 14064 065.0066 028.7399 0094405 062.6422 298.4260 14.89355487579143
Epoch (UTC): 24 October 2014 17:48:01
Eccentricity: 0.0094405
inclination: 65.0066°
perigee height: 534 km
apogee height: 666 km
right ascension of ascending node: 28.7399°
argument of perigee: 62.6422°
revolutions per day: 14.89355487
mean anomaly at epoch: 298.4260°
orbit number at epoch: 57914

The dashed part of the orbit path shows where the satellite is in the earth's shadow,  

DLR